Simultaneous Nadir Overpasses (SNOs) Predictions

Prediction of SNOs between AQUA and METOP-C Satellite Orbit:

Table of predicted SNOs for the next 14.0 days since TLE Epoch: 11/13/2021
Index Date (AQUA) Time (AQUA) Lat,Lon (AQUA) SZA (AQUA ) Date (METOP-C) Time (METOP-C) Lat,Lon (METOP-C) SZA (METOP-C ) Distance(km) Time Diff (sec)
1 11/14/2021 16:57:35 73.71, -79.91 92.03 11/14/2021 16:56:38 73.69, -79.97 92.02 2.59 57
2 11/14/2021 17:47:02 -73.79, 87.54 87.88 11/14/2021 17:47:18 -73.80, 87.61 87.87 2.25 16
3 11/14/2021 18:36:40 74.32,-106.03 92.68 11/14/2021 18:37:47 74.31,-103.78 92.65 67.89 67
4 11/17/2021 12:31:51 73.71, -13.48 92.74 11/17/2021 12:31:01 73.71, -13.52 92.73 1.20 50
5 11/17/2021 13:21:18 -73.80, 153.98 87.17 11/17/2021 13:21:41 -73.81, 154.05 87.16 2.74 23
6 11/20/2021 08:06:07 73.73, 52.92 93.41 11/20/2021 08:05:24 73.72, 52.93 93.41 0.76 43
7 11/20/2021 08:55:34 -73.81,-139.61 86.51 11/20/2021 08:56:04 -73.82,-139.52 86.50 3.13 30
8 11/23/2021 03:40:22 73.76, 119.30 94.05 11/23/2021 03:39:46 73.73, 119.37 94.03 3.08 36
9 11/23/2021 04:29:48 -73.78, -73.11 85.92 11/23/2021 04:30:27 -73.78, -73.21 85.93 3.17 39
10 11/25/2021 23:14:37 73.74,-174.23 94.60 11/25/2021 23:14:09 73.74,-174.20 94.60 0.77 28
11 11/26/2021 00:04:04 -73.81, -6.74 85.33 11/26/2021 00:04:49 -73.83, -6.67 85.31 2.80 45



Historial Predications of SNOs between AQUA and METOP-C
